TimeEST,TemperatureF,Dew PointF,Humidity,Sea Level PressureIn,VisibilityMPH,Wind Direction,Wind SpeedMPH,Gust SpeedMPH,PrecipitationIn,Events,Conditions,WindDirDegrees,DateUTC
12:15 AM,21.0,17.6,87,29.93,7.0,Calm,Calm,-,N/A,,Overcast,0,2013-02-05 05:15:00
12:35 AM,21.0,17.6,87,29.92,7.0,Calm,Calm,-,N/A,,Overcast,0,2013-02-05 05:35:00
12:55 AM,20.8,17.6,87,29.92,7.0,Calm,Calm,-,N/A,,Overcast,0,2013-02-05 05:55:00
1:15 AM,20.7,17.2,87,29.91,7.0,NNE,3.5,-,N/A,,Overcast,20,2013-02-05 06:15:00
1:35 AM,20.3,17.2,88,29.90,7.0,Calm,Calm,-,N/A,Snow,Light Snow,0,2013-02-05 06:35:00
1:55 AM,20.3,17.2,88,29.90,7.0,Calm,Calm,-,N/A,Snow,Light Snow,0,2013-02-05 06:55:00
2:15 AM,20.3,17.1,87,29.90,7.0,Calm,Calm,-,N/A,,Overcast,0,2013-02-05 07:15:00
2:35 AM,20.3,16.9,87,29.91,7.0,Calm,Calm,-,N/A,,Overcast,0,2013-02-05 07:35:00
2:55 AM,20.3,17.1,87,29.92,7.0,NNW,3.5,-,N/A,,Overcast,340,2013-02-05 07:55:00
3:15 AM,20.3,16.7,86,29.93,10.0,Calm,Calm,-,N/A,,Overcast,0,2013-02-05 08:15:00
3:35 AM,20.3,16.7,86,29.93,7.0,Calm,Calm,-,N/A,,Overcast,0,2013-02-05 08:35:00
3:55 AM,20.3,16.7,86,29.92,7.0,Calm,Calm,-,N/A,,Overcast,0,2013-02-05 08:55:00
4:15 AM,20.3,17.1,87,29.92,7.0,Calm,Calm,-,N/A,,Overcast,0,2013-02-05 09:15:00
4:35 AM,20.7,17.2,87,29.91,7.0,Calm,Calm,-,N/A,,Overcast,0,2013-02-05 09:35:00
4:55 AM,20.7,17.2,87,29.91,7.0,Calm,Calm,-,N/A,,Overcast,0,2013-02-05 09:55:00
5:15 AM,20.3,17.1,87,29.91,7.0,Calm,Calm,-,N/A,,Overcast,0,2013-02-05 10:15:00
5:35 AM,20.3,17.1,87,29.91,7.0,Calm,Calm,-,N/A,,Overcast,0,2013-02-05 10:35:00
5:55 AM,20.1,16.7,87,29.91,7.0,Calm,Calm,-,N/A,,Overcast,0,2013-02-05 10:55:00
6:15 AM,19.8,16.5,87,29.91,7.0,Calm,Calm,-,N/A,,Overcast,0,2013-02-05 11:15:00
6:35 AM,19.4,16.3,88,29.91,7.0,Calm,Calm,-,N/A,,Overcast,0,2013-02-05 11:35:00
7:15 AM,21.0,17.1,85,29.92,7.0,Calm,Calm,-,N/A,,Overcast,0,2013-02-05 12:15:00
7:35 AM,20.8,17.6,87,29.93,7.0,Calm,Calm,-,N/A,,Overcast,0,2013-02-05 12:35:00
7:55 AM,21.6,16.7,82,29.93,7.0,Calm,Calm,-,N/A,,Overcast,0,2013-02-05 12:55:00
8:15 AM,21.0,16.7,83,29.92,7.0,Calm,Calm,-,N/A,,Overcast,0,2013-02-05 13:15:00
8:35 AM,21.9,17.4,83,29.92,5.0,Calm,Calm,-,N/A,,Haze,0,2013-02-05 13:35:00
8:55 AM,22.1,18.1,85,29.94,5.0,Calm,Calm,-,N/A,,Overcast,0,2013-02-05 13:55:00
9:15 AM,22.5,17.8,82,29.94,7.0,Calm,Calm,-,N/A,,Overcast,0,2013-02-05 14:15:00
9:35 AM,22.1,15.8,77,29.93,10.0,South,3.5,-,N/A,,Overcast,190,2013-02-05 14:35:00
9:55 AM,22.5,16.0,76,29.94,10.0,Calm,Calm,-,N/A,,Mostly Cloudy,0,2013-02-05 14:55:00
10:15 AM,23.0,16.0,74,29.93,10.0,SSW,5.8,-,N/A,,Overcast,210,2013-02-05 15:15:00
10:35 AM,23.4,16.5,75,29.92,10.0,Calm,Calm,-,N/A,,Mostly Cloudy,0,2013-02-05 15:35:00
10:55 AM,23.7,16.7,75,29.92,10.0,South,8.1,-,N/A,,Overcast,170,2013-02-05 15:55:00
11:15 AM,24.6,16.7,72,29.91,10.0,South,5.8,-,N/A,,Overcast,190,2013-02-05 16:15:00
11:35 AM,24.8,16.7,71,29.90,10.0,South,8.1,-,N/A,,Overcast,190,2013-02-05 16:35:00
11:55 AM,25.7,17.1,70,29.89,10.0,SSW,8.1,-,N/A,,Mostly Cloudy,200,2013-02-05 16:55:00
12:15 PM,27.0,16.7,65,29.88,10.0,SW,5.8,-,N/A,,Scattered Clouds,220,2013-02-05 17:15:00
12:35 PM,28.2,16.5,62,-9999,10.0,SSW,9.2,-,N/A,,Scattered Clouds,200,2013-02-05 17:35:00
12:55 PM,27.5,16.9,64,29.87,10.0,SSW,3.5,-,N/A,,Mostly Cloudy,200,2013-02-05 17:55:00
1:15 PM,28.0,17.4,64,29.86,10.0,SSW,8.1,-,N/A,,Overcast,200,2013-02-05 18:15:00
1:35 PM,28.9,17.4,62,29.85,10.0,SSW,6.9,-,N/A,,Overcast,200,2013-02-05 18:35:00
1:55 PM,28.4,18.3,66,29.85,10.0,South,5.8,-,N/A,,Overcast,180,2013-02-05 18:55:00
2:15 PM,28.6,17.8,64,29.83,10.0,South,11.5,16.1,N/A,,Overcast,190,2013-02-05 19:15:00
2:35 PM,28.4,17.8,64,29.84,10.0,SSW,6.9,-,N/A,,Overcast,200,2013-02-05 19:35:00
2:55 PM,28.0,18.5,67,29.84,10.0,SSW,8.1,-,N/A,,Overcast,210,2013-02-05 19:55:00
3:15 PM,28.0,18.5,67,29.83,10.0,South,6.9,-,N/A,,Overcast,190,2013-02-05 20:15:00
3:36 PM,27.9,19.0,69,29.83,10.0,South,8.1,-,N/A,,Overcast,180,2013-02-05 20:36:00
3:55 PM,27.9,19.0,69,29.83,10.0,South,9.2,-,N/A,,Overcast,190,2013-02-05 20:55:00
4:15 PM,27.5,19.2,71,29.83,10.0,South,6.9,-,N/A,,Overcast,190,2013-02-05 21:15:00
4:35 PM,27.3,19.0,71,29.83,10.0,South,9.2,-,N/A,,Overcast,190,2013-02-05 21:35:00
4:55 PM,27.3,19.2,72,29.83,10.0,South,4.6,-,N/A,,Overcast,190,2013-02-05 21:55:00
5:15 PM,27.5,19.6,72,29.83,7.0,SW,5.8,-,N/A,,Overcast,220,2013-02-05 22:15:00
5:35 PM,27.5,19.6,72,29.84,5.0,SSW,4.6,-,N/A,Snow,Light Snow,210,2013-02-05 22:35:00
5:55 PM,26.6,22.1,83,29.85,1.2,SW,5.8,-,N/A,Snow,Light Snow,220,2013-02-05 22:55:00
6:15 PM,26.2,22.8,87,29.85,0.5,SSW,4.6,-,N/A,Snow,Snow,210,2013-02-05 23:15:00
6:35 PM,26.4,23.4,88,29.86,1.2,SSW,5.8,-,N/A,Snow,Light Snow,210,2013-02-05 23:35:00
6:55 PM,26.2,23.0,88,29.87,2.5,SW,3.5,-,N/A,Snow,Light Snow,220,2013-02-05 23:55:00
7:15 PM,25.7,22.3,87,29.87,3.0,SW,3.5,-,N/A,Snow,Light Snow,220,2013-02-06 00:15:00
7:35 PM,26.4,23.0,87,29.87,4.0,SW,4.6,-,N/A,,Overcast,220,2013-02-06 00:35:00
7:56 PM,26.8,23.4,87,29.88,4.0,SSW,4.6,-,N/A,,Overcast,210,2013-02-06 00:56:00
8:15 PM,27.0,23.4,86,29.88,5.0,SSW,5.8,-,N/A,,Overcast,210,2013-02-06 01:15:00
8:35 PM,27.3,23.7,86,29.88,5.0,SSW,5.8,-,N/A,,Overcast,210,2013-02-06 01:35:00
8:55 PM,27.9,23.9,85,29.90,5.0,SW,6.9,-,N/A,,Overcast,230,2013-02-06 01:55:00
9:15 PM,28.2,24.1,84,29.90,5.0,SW,5.8,-,N/A,,Overcast,230,2013-02-06 02:15:00
9:36 PM,28.6,24.1,83,29.91,5.0,SW,6.9,-,N/A,,Overcast,220,2013-02-06 02:36:00
9:55 PM,28.9,24.3,83,29.92,5.0,WSW,8.1,-,N/A,,Haze,240,2013-02-06 02:55:00
10:15 PM,29.1,24.6,83,29.93,5.0,WSW,6.9,-,N/A,,Haze,240,2013-02-06 03:15:00
10:35 PM,29.1,24.8,84,29.93,5.0,WSW,6.9,-,N/A,,Overcast,240,2013-02-06 03:35:00
10:55 PM,29.1,24.8,84,29.93,5.0,WSW,8.1,-,N/A,,Overcast,240,2013-02-06 03:55:00
11:15 PM,29.3,24.8,83,29.94,5.0,WSW,6.9,-,N/A,,Overcast,250,2013-02-06 04:15:00
11:35 PM,29.3,25.3,85,29.94,5.0,West,5.8,-,N/A,,Overcast,260,2013-02-06 04:35:00
11:55 PM,29.5,25.5,85,29.95,5.0,West,8.1,-,N/A,,Overcast,260,2013-02-06 04:55:00